Regional Weather Roundup
Issued by NWS Kansas City/Pleasant Hill, MO

Home | Current Version | Previous Version | Text Only | Print | Product List | Glossary On
Versions: 1 2 3 4 5 6 7 8 9 10 11 12 13 14 15 16 17 18 19 20 21 22 23 24 25 26 27 28 29 30 31 32 33 34 35 36 37 38 39 40 41 42 43 44 45 46 47 48 49 50
000
ASUS43 KEAX 200010
RWREAX

WEATHER ROUNDUP FOR EASTERN KANSAS AND NORTHWEST MISSOURI
NATIONAL WEATHER SERVICE KANSAS CITY/PLEASANT HILL MO
600 PM CST MON FEB 19 2018

KSZ040-057-103>105-MOZ028-029-037-043-200100-
...KANSAS CITY METROPOLITAN AREA...

CITY           SKY/WX    TMP DP  RH WIND       PRES   REMARKS
K.C. INTL      CLOUDY    31  28  89 NW10      29.82R WCI  22
6HR MIN TEMP:  31; 6HR MAX TEMP:  35; 6HR PCP: TRACE;

K.C. DOWNTOWN  CLOUDY    34  30  85 NW7       29.82R WCI  28
6HR MIN TEMP:  34; 6HR MAX TEMP:  44; 6HR PCP: TRACE;

LEES SUMMIT    CLOUDY    34  34 100 NW8       29.81R FOG     WCI  27
6HR MIN TEMP:  34; 6HR MAX TEMP:  55; 6HR PCP:  0.01;

OLATHE - IXD   CLOUDY    33  31  92 NW9       29.82R WCI  25
6HR MIN TEMP:  32; 6HR MAX TEMP:  44;

OLATHE - OJC   CLOUDY    32  31  96 NW8       29.81R FOG     WCI  25
6HR MIN TEMP:  32; 6HR MAX TEMP:  40;

LAWRENCE       CLOUDY    34  28  79 NW8       29.83R WCI  27

$$

MOZ001>008-011>017-020>025-030>033-038>040-044>046-053-054-200100-
...NORTHERN AND CENTRAL MISSOURI...

CITY           SKY/WX    TMP DP  RH WIND       PRES   REMARKS
ST. JOSEPH     CLOUDY    29  28  96 NW9       29.85R FOG     WCI  20
6HR MIN TEMP:  29; 6HR MAX TEMP:  32;

MOSBY          CLOUDY    32  32 100 NW7       29.82R WCI  26
WARRENSBURG    CLOUDY    37  36  93 NW8       29.78R WCI  31
WHITEMAN AFB   LGT RAIN  41  39  94 NW8       29.75R
6HR MIN TEMP:  41; 6HR MAX TEMP:  66; 6HR PCP:  0.45;

CLINTON        LGT RAIN  48  48 100 N10       29.79R
SEDALIA        RAIN      48  48 100 NW15      29.77R FOG
6HR MIN TEMP:  48; 6HR MAX TEMP:  65; 6HR PCP:  0.39;

WARSAW         NOT AVBL
CHILLICOTHE      N/A     37  34  89 NW6       29.81R WCI  32
6HR MIN TEMP:  37; 6HR MAX TEMP:  61; 6HR PCP:  0.01;

KIRKSVILLE     CLOUDY    48  48 100 W7        29.76R FOG
6HR MIN TEMP:  48; 6HR MAX TEMP:  67; 6HR PCP:  0.31;


$$

MOZ041-047>049-056>058-063>065-088>090-097-200100-
...EASTERN AND SOUTHERN MISSOURI...

CITY           SKY/WX    TMP DP  RH WIND       PRES   REMARKS
ST. LOUIS INTL CLOUDY    65  58  78 S10       29.85F
6HR MIN TEMP:  60; 6HR MAX TEMP:  65; 6HR PCP:  0.56;

SPIRIT OF STL  CLOUDY    67  58  72 S5        29.83S
COLUMBIA       CLOUDY    66  60  81 S18G29    29.77R
JEFFERSON CITY CLOUDY    68  58  70 S16G23    29.78R
ROLLA          CLOUDY    65  57  75 S23G30    29.83S
OSAGE BEACH    CLOUDY    66  59  78 S13G23    29.81R
SPRINGFIELD    CLOUDY    66  59  78 S20G32    29.80S
BRANSON        CLOUDY    66  57  72 SE12G17   29.87F
JOPLIN         CLOUDY    64  63  96 S24G35    29.75S
WEST PLAINS    CLOUDY    67  55  65 S13       29.93R

$$

IAZ060-094-KSZ022-034>040-054-083-096-NEZ052-066-093-200100-
...KANSAS...SOUTHEAST NEBRASKA AND IOWA...

CITY           SKY/WX    TMP DP  RH WIND       PRES   REMARKS
TOPEKA         CLOUDY    32  27  81 NW8       29.84R WCI  25
6HR MIN TEMP:  32; 6HR MAX TEMP:  34;

MANHATTAN      CLOUDY    30  21  69 N6        29.84S WCI  24
EMPORIA        CLOUDY    31  26  82 N9        29.81S WCI  23
CHANUTE        CLOUDY    35  34  96 N9        29.80R FOG     WCI  28
WICHITA        CLOUDY    32  25  75 NE15      29.79S WCI  22
OMAHA          FLURRIES  23  20  88 N10       29.87R WCI  12
LINCOLN        FLURRIES  21  18  88 N14       29.87R WCI   8
FALLS CITY     CLOUDY    26  23  88 NW12      29.84R WCI  16
LAMONI         CLOUDY    32  30  92 NW9       29.79R WCI  24
DES MOINES     FRZ DRZL  31  29  92 NW12      29.78R FOG     WCI  22

$$




USA.gov is the U.S. government's official web portal to all federal, state and local government web resources and services.